STARLINK-31194

decayed
NORAD ID: 58792 Int'l Des: 2024-012 Owner: SPXS Country: US Constellation: starlink
LEOCIRCULAR

关于 STARLINK-31194

正在加载描述...

高度历史

Altitude vs Time

uPlot chart will show altitude changes over time

两行轨道根数

1 58792U 24012F 24158.31668287 .15213629 93590-5 20867-2 0 9996
2 58792 42.9635 132.9787 0024073 53.4518 55.0023 16.33117350 23720
Epoch: Jun 6, 2024 • Age: 11206 hours

当前状态

Position data unavailable
发射日期 Jan 15, 2024
运行时间 1.6 years
衰减日期 Jun 6, 2024
类型 internet

技术详情

分类 Payload
质量 730.00 kg
干质量 700.00 kg
总质量 730.00 kg
长度 0.30 m
直径 4.10 m
跨度 29.00 m
形状 Box + pan
制造商 SPXS
平台类型 Starlink V2M
阶段状态 Unknown Transfer Status
所有者/国家 SPXS/US

大型星座

Loading constellations...